Voltar ao catálogo

ARIANE 44L+ DEB

LostGTO
NORAD 26790·DEBRIS·🇫🇷 France

Lançado Apr 15, 1992 de Guiana Space Centre

Loading…

TLE

ObsoletoSource: Space-Track

Época: Nov 20, 2024, 05:39 UTC

1 26790U 92021Q   24325.23559052 -.00000153  00000-0  00000+0 0  9994
2 26790   3.7964 330.7418 6974467 207.4891 111.2142  2.23070485    08

Acompanhe ARIANE 44L+ DEB em tempo real com AllMySat

Download on the App Store